STARLINK-1311

decayed
NORAD ID: 45363 Int'l Des: 2020-019 Owner: SPXS Country: US Constellation: starlink
LEOCIRCULAR
Group

About STARLINK-1311

Description loading...

Altitude History

Altitude vs Time

uPlot chart will show altitude changes over time

Two-Line Element Set

1 45363U 20019D 20269.17984688 .12645809 12369-4 14683-2 0 9997
2 45363 52.9669 21.1686 0008084 329.3945 96.5453 16.35871284 30751
Epoch: Sep 25, 2020 • Age: 43594 hours

Current Status

Position data unavailable
Launch Date Mar 18, 2020
Age 5.4 years
Decay Date Sep 25, 2020
Type internet

Technical Details

Classification Payload
Mass 260.00 kg
Dry Mass 248.00 kg
Total Mass 260.00 kg
Length 0.20 m
Diameter 2.80 m
Span 9.00 m
Shape Box + pan
Manufacturer SPXS
Bus Type Starlink
Phase Status Unknown Transfer Status
Owner/State SPXS/US

Large Constellations

Loading constellations...